This is the latest recevied weather packets stored in our database for station/object N4BBA. If no packets are shown the sender has not sent any weather packets the latest 10 day(s).
| Time | Temp. | Humidity | Pressure | Rain* | Wind** | Luminosity | Snow |
|---|---|---|---|---|---|---|---|
| 1777566082 | 17.22° C | 88% | 1009.8 hPa | 0 mm | - | 254 W/m² | - |
| 1777565777 | 17.22° C | 89% | 1009.9 hPa | 0 mm | - | 176 W/m² | - |
| 1777565474 | 17.22° C | 89% | 1010 hPa | 0 mm | - | 164 W/m² | - |
| 1777565170 | 16.67° C | 89% | 1009.8 hPa | 0 mm | - | 138 W/m² | - |
| 1777564866 | 16.67° C | 88% | 1009.8 hPa | 0 mm | - | 139 W/m² | - |
| 1777564561 | 16.67° C | 88% | 1009.9 hPa | 0 mm | - | 116 W/m² | - |
| 1777564257 | 16.67° C | 88% | 1010 hPa | 0 mm | - | 118 W/m² | - |
| 1777563954 | 16.67° C | 88% | 1009.8 hPa | 0 mm | - | 106 W/m² | - |
| 1777563650 | 16.67° C | 88% | 1009.6 hPa | 0 mm | - | 112 W/m² | - |
| 1777563350 | 16.67° C | 89% | 1009.8 hPa | 0 mm | - | 109 W/m² | - |
| 1777563046 | 17.22° C | 89% | 1009.6 hPa | 0 mm | - | 101 W/m² | - |
| 1777562742 | 17.22° C | 88% | 1009.7 hPa | 0 mm | - | 109 W/m² | - |
| 1777562441 | 17.78° C | 89% | 1009.9 hPa | 0 mm | - | 114 W/m² | - |
| 1777562137 | 17.78° C | 88% | 1009.7 hPa | 0 mm | - | 131 W/m² | - |
| 1777561835 | 17.78° C | 89% | 1010.1 hPa | 0 mm | - | 163 W/m² | - |
| 1777561532 | 17.22° C | 89% | 1010.1 hPa | 0 mm | - | 201 W/m² | - |
| 1777561227 | 17.22° C | 90% | 1010.4 hPa | 0 mm | - | 196 W/m² | - |
| 1777560926 | 17.22° C | 90% | 1010.1 hPa | 0 mm | - | 181 W/m² | - |
| 1777560624 | 17.22° C | 91% | 1010.2 hPa | 0 mm | - | 161 W/m² | - |
| 1777560321 | 17.22° C | 92% | 1010.1 hPa | 0 mm | - | 164 W/m² | - |
| 1777560019 | 17.22° C | 92% | 1010.2 hPa | 0 mm | - | 154 W/m² | - |
| 1777559714 | 16.67° C | 93% | 1010.3 hPa | 0 mm | - | 156 W/m² | - |
| 1777559412 | 16.67° C | 94% | 1010.3 hPa | 0 mm | - | 186 W/m² | - |
| 1777559109 | 16.67° C | 94% | 1010.3 hPa | 0 mm | - | 177 W/m² | - |
| 1777558803 | 16.67° C | 95% | 1010.2 hPa | 0 mm | - | 197 W/m² | - |
* Rain latest hour (hover to see other rain measurements)
** Current wind speed in m/s (hover to see current wind gust speed)